Zurück zum Katalog

SHIJIAN 6 03B

SJ-6 03B

AktivWissenschaftSSO
NORAD 33409·PAYLOAD·🇨🇳 China

Gestartet Oct 25, 2008 von Taiyuan Satellite Launch Center

Loading…

Nächste Überflüge (nächste 24 Stunden)

TLE

AktuellSource: Space-Track

Epoche: Sep 14, 2026, 15:01 UTC

1 33409U 08053B   26257.62582825  .00000312  00000-0  26865-4 0  9992
2 33409  97.8541 279.0044 0020624  98.1110 262.2456 15.04494040976195

Verfolge SHIJIAN 6 03B in Echtzeit mit AllMySat

Download on the App Store